[[{"header":{"parameterUnit":"m.s-1","parameterCategory":1,"la1":30.2991,"la2":30.254,"lo1":-89.0895,"lo2":-89.0444,"dy":0.0017,"dx":0.0017,"nx":28,"ny":28,"refTime":"2024-08-27T21:00:00:Z","depth":0,"parameterNumber":2,"parameterNumberName":"U-component_of_WINDS"},"data":[0,0,0,0,0,0,0,0,0,0,0,0,0,0,0,0,0,0,0,0,0,0,0,0,0,0,0,0,0,0,0,0,0,0,0,0,0,0,0,0,0,0,0,0,0,0,0,0,0,0,0,0,0,0,0,0,0,0,-2.3326,-2.3327,0,-2.3367,-2.3368,-2.3368,-2.3296,-2.3293,-2.3291,-2.3289,-2.3328,-2.3331,-2.3334,0,0,0,0,0,0,0,0,0,0,0,0,0,-2.3183,-2.3186,-2.3326,-2.3327,-2.3327,-2.3367,-2.3368,-2.3368,-2.3296,-2.3293,-2.329,-2.3288,-2.3327,-2.3331,-2.3335,0,0,0,0,0,0,0,0,0,0,0,0,0,-2.3237,-2.3187,-2.3326,-2.3296,-2.3294,-2.3367,-2.3368,-2.3368,-2.3297,-2.3293,-2.329,-2.3286,-2.3325,-2.333,-2.3335,-2.3438,0,0,-2.335,-2.3352,0,0,0,0,0,0,0,0,-2.3234,-2.3242,-2.33,-2.3298,-2.3296,-2.3323,-2.3331,-2.3392,-2.3298,-2.3296,-2.3289,-2.3284,-2.3329,-2.3333,-2.3349,-2.344,-2.3442,-2.3351,-2.3354,-2.3356,-2.3357,0,0,0,0,0,0,0,-2.323,-2.324,-2.3342,-2.3301,-2.3298,-2.328,-2.3283,-2.3343,-2.3332,-2.3295,-2.329,-2.3296,-2.3327,-2.3344,-2.3349,-2.3443,-2.3351,-2.3355,-2.3358,-2.336,-2.3621,-2.3625,0,0,0,0,0,0,-2.3231,-2.3237,-2.3341,-2.3343,-2.3255,-2.3285,-2.3289,-2.3318,-2.3331,-2.333,-2.3299,-2.3293,-2.3338,-2.3344,-2.335,-2.3472,-2.3356,-2.336,-2.3363,-2.3617,-2.3622,-2.3626,0,0,0,0,0,0,-2.3228,-2.324,-2.3339,-2.3289,-2.33,-2.3292,-2.3324,-2.332,-2.3338,-2.3334,-2.3332,-2.3319,-2.3335,-2.3343,-2.3417,-2.3472,-2.3363,-2.3367,-2.3612,-2.3619,-2.3624,-2.3717,0,0,0,0,0,0,-2.3224,-2.324,-2.328,-2.3291,-2.3303,-2.3406,-2.3327,-2.3324,-2.3347,-2.3338,-2.3352,-2.3351,-2.3333,-2.341,-2.3422,-2.3477,-2.3371,-2.3607,-2.3615,-2.3622,-2.3709,-2.3725,-2.3739,0,0,0,0,0,-2.3219,-2.3303,-2.3282,-2.3295,-2.3353,-2.341,-2.3417,-2.3395,-2.3351,-2.3391,-2.3389,-2.335,-2.3465,-2.3419,-2.3431,-2.3489,-2.3604,-2.3613,-2.3622,-2.3702,-2.3722,-2.3739,0,0,0,0,0,0,-2.3298,-2.3304,-2.328,-2.3371,-2.3391,-2.3397,-2.3446,-2.3417,-2.3449,-2.344,-2.3411,-2.3414,-2.3494,-2.3499,-2.3447,-2.359,-2.3527,-2.3539,-2.3583,-2.3602,-2.3617,-2.3614,-2.3375,0,0,0,0,0,-2.3326,-2.3372,-2.3375,-2.3455,-2.3466,-2.3455,-2.3479,-2.3461,-2.3479,-2.3487,-2.349,-2.3509,-2.3549,-2.3576,-2.3613,-2.3709,-2.3711,-2.3755,-2.377,-2.3783,-2.3793,-2.3844,-2.3864,-2.3655,-2.3655,-2.3655,0,0,-2.3384,-2.3393,-2.3424,-2.3471,-2.3484,-2.3532,-2.3462,-2.3516,-2.3551,-2.3495,-2.3565,-2.3568,-2.3587,-2.3673,-2.3711,-2.368,-2.3851,-2.3794,-2.3804,-2.3808,-2.3856,-2.3875,-2.3893,-2.3661,-2.366,-2.3659,0,0,-2.3514,-2.3526,-2.3593,-2.3608,-2.363,-2.3622,-2.3638,-2.365,-2.3651,-2.3721,-2.368,-2.3721,-2.3791,-2.3806,-2.3823,-2.3961,-2.3927,-2.3974,-2.4053,-2.4103,-2.412,-2.4134,-2.4183,-2.4201,-2.3984,-2.3985,-2.3985,0,-2.3582,-2.3654,-2.3632,-2.3689,-2.371,-2.3663,-2.3731,-2.3746,-2.3778,-2.3794,-2.3759,-2.3846,-2.3855,-2.3944,-2.3978,-2.3993,-2.4011,-2.3972,-2.412,-2.4134,-2.4147,-2.4193,-2.4211,-2.399,-2.399,-2.3989,-2.3988,0,-2.3738,-2.3789,-2.3841,-2.3874,-2.3901,-2.3964,-2.395,-2.398,-2.3961,-2.3957,-2.4029,-2.4039,-2.4077,-2.4097,-2.4077,-2.4183,-2.4163,-2.4124,-2.406,-2.4173,-2.4215,-2.4233,-2.3998,-2.3996,-2.3995,-2.3993,0,0,-2.3917,-2.3938,-2.3957,-2.3972,-2.3993,-2.4031,-2.4091,-2.413,-2.4157,-2.4181,-2.423,-2.4291,-2.4255,-2.4275,-2.4257,-2.4301,-2.4409,-2.4257,-2.4257,-2.4284,-2.4526,-2.4555,-2.4576,-2.4388,-2.4391,-2.4393,-2.4524,0,-2.4046,-2.415,-2.4132,-2.4234,-2.428,-2.4237,-2.4289,-2.4307,-2.4305,-2.4344,-2.4341,-2.4385,-2.4335,-2.4347,-2.4389,-2.4387,-2.4457,-2.4378,-2.4432,-2.4434,-2.4428,-2.4598,-2.4628,-2.4751,-2.4541,-2.4544,-2.4546,0,-2.4209,-2.4241,-2.4348,-2.4362,-2.438,-2.4428,-2.4462,-2.45,-2.4519,-2.4515,-2.4538,-2.4512,-2.4571,-2.4508,-2.4589,-2.4535,-2.4557,-2.456,-2.4564,-2.4567,-2.4496,-2.4605,-2.479,-2.4808,-2.4572,-2.457,-2.4568,0,-2.4328,-2.4398,-2.447,-2.4484,-2.4503,-2.4537,-2.4546,-2.4563,-2.4587,-2.4617,-2.4632,-2.4669,-2.4688,-2.4716,-2.4701,-2.4656,-2.4785,-2.472,-2.4782,-2.4782,-2.481,-2.4808,-2.5,-2.4826,-2.4825,-2.4825,-2.4825,0,-2.4473,-2.454,-2.4524,-2.4569,-2.4642,-2.4621,-2.4694,-2.4698,-2.4713,-2.4757,-2.4722,-2.4763,-2.4741,-2.4781,-2.4769,-2.4838,-2.4847,-2.4845,-2.484,-2.4847,-2.4848,-2.486,-2.485,-2.483,-2.4829,-2.4828,-2.4827,0,-2.4618,-2.461,-2.4686,-2.4698,-2.4703,-2.4757,-2.4766,-2.4808,-2.4804,-2.486,-2.4872,-2.4866,-2.4912,-2.49,-2.4949,-2.4941,-2.5028,-2.5013,-2.5021,-2.5017,-2.508,-2.5074,-2.5285,-2.5311,-2.5122,-2.5123,-2.5125,0,-2.471,-2.4761,-2.4779,-2.4807,-2.4819,-2.4864,-2.4889,-2.487,-2.4898,-2.4925,-2.4963,-2.5006,-2.5039,-2.5114,-2.5113,-2.5151,-2.5136,-2.5208,-2.5142,-2.5147,-2.5136,-2.5133,-2.5138,-2.5221,-2.5223,-2.5225,-2.5226,0,-2.4875,-2.4869,-2.4907,-2.4945,-2.4977,-2.5006,-2.503,-2.5055,-2.5038,-2.5071,-2.5118,-2.5144,-2.5195,-2.5238,-2.5273,-2.5281,-2.5251,-2.5248,-2.5264,-2.527,-2.5273,-2.5271,-2.5056,-2.5242,-2.5241,-2.5239,-2.5239,-2.5238,-2.4995,-2.5038,-2.5058,-2.5102,-2.512,-2.5145,-2.5184,-2.5187,-2.5226,-2.5266,-2.5253,-2.5307,-2.5325,-2.5369,-2.5382,-2.5423,-2.5396,-2.542,-2.5425,-2.5431,-2.5439,-2.5268,-2.543,-2.5429,-2.5429,-2.5429,-2.5428,0,-2.5157,-2.5168,-2.521,-2.5247,-2.5282,-2.5252,-2.5279,-2.531,-2.5358,-2.5378,-2.5412,-2.5467,-2.5508,-2.5512,-2.5551,-2.5583,-2.557,-2.5594,-2.5591,-2.5593,-2.5461,-2.5443,-2.5604,-2.5604,-2.5604,-2.5604,-2.5604,-2.5603,-2.5245,-2.5317,-2.5314,-2.5393,-2.5403,-2.5457,-2.5474,-2.5497,-2.5513,-2.5576,-2.5611,-2.5613,-2.5627,-2.5667,-2.5704,-2.5704,-2.572,-2.5748,-2.5743,-2.562,-2.5602,-2.5585,-2.5568,-2.5752,-2.5753,-2.5871,-2.5872,-2.5873]},{"header":{"parameterUnit":"m.s-1","parameterCategory":1,"la1":30.2991,"la2":30.254,"lo1":-89.0895,"lo2":-89.0444,"dy":0.0017,"dx":0.0017,"nx":28,"ny":28,"refTime":"2024-08-27T21:00:00:Z","depth":0,"parameterNumber":3,"parameterNumberName":"V-component_of_WINDS"},"data":[0,0,0,0,0,0,0,0,0,0,0,0,0,0,0,0,0,0,0,0,0,0,0,0,0,0,0,0,0,0,0,0,0,0,0,0,0,0,0,0,0,0,0,0,0,0,0,0,0,0,0,0,0,0,0,0,0,0,-1.0247,-1.0249,0,-1.0391,-1.0393,-1.0394,-1.0516,-1.0517,-1.0518,-1.052,-1.0663,-1.0665,-1.0668,0,0,0,0,0,0,0,0,0,0,0,0,0,-1.0075,-1.0077,-1.0247,-1.0249,-1.0251,-1.0391,-1.0393,-1.0395,-1.0516,-1.0517,-1.0519,-1.052,-1.0662,-1.0665,-1.0668,0,0,0,0,0,0,0,0,0,0,0,0,0,-1.0177,-1.0078,-1.0247,-1.0328,-1.0337,-1.039,-1.0393,-1.0395,-1.0515,-1.0517,-1.0519,-1.0521,-1.0661,-1.0665,-1.0668,-1.0652,0,0,-1.068,-1.0682,0,0,0,0,0,0,0,0,-1.0171,-1.0183,-1.0314,-1.0323,-1.0332,-1.0438,-1.0384,-1.0481,-1.0515,-1.0447,-1.052,-1.0522,-1.0586,-1.0596,-1.0618,-1.0658,-1.0664,-1.068,-1.0683,-1.0684,-1.0685,0,0,0,0,0,0,0,-1.0164,-1.0178,-1.0304,-1.0316,-1.0327,-1.0356,-1.0373,-1.0403,-1.0503,-1.0453,-1.0463,-1.0478,-1.0591,-1.0614,-1.0623,-1.0667,-1.068,-1.0684,-1.0686,-1.0688,-1.07,-1.0698,0,0,0,0,0,0,-1.0145,-1.0171,-1.0299,-1.0308,-1.0255,-1.0358,-1.0377,-1.0402,-1.0503,-1.0521,-1.0476,-1.0483,-1.0607,-1.0618,-1.0628,-1.0615,-1.0684,-1.0688,-1.069,-1.0702,-1.0699,-1.0697,0,0,0,0,0,0,-1.014,-1.0155,-1.0294,-1.0242,-1.0262,-1.0359,-1.0386,-1.0403,-1.0427,-1.0521,-1.0539,-1.0482,-1.0609,-1.0623,-1.0645,-1.0621,-1.069,-1.0693,-1.0704,-1.0701,-1.0698,-1.0587,0,0,0,0,0,0,-1.0135,-1.0153,-1.0148,-1.0241,-1.0264,-1.0308,-1.0385,-1.0405,-1.0434,-1.0444,-1.0531,-1.0547,-1.0612,-1.0639,-1.0649,-1.0628,-1.0696,-1.0707,-1.0703,-1.0699,-1.0594,-1.0581,-1.057,0,0,0,0,0,-1.0128,-1.011,-1.0147,-1.0162,-1.026,-1.0307,-1.032,-1.0396,-1.0431,-1.0427,-1.0487,-1.0544,-1.0623,-1.064,-1.0653,-1.0632,-1.0708,-1.0704,-1.07,-1.0599,-1.0583,-1.0571,0,0,0,0,0,0,-1.0009,-1.0124,-1.0166,-1.0177,-1.0232,-1.0327,-1.0324,-1.0377,-1.0422,-1.043,-1.0521,-1.0539,-1.0551,-1.0595,-1.0612,-1.0621,-1.0673,-1.0671,-1.0592,-1.0579,-1.0567,-1.0555,-1.0699,0,0,0,0,0,-0.9985,-1.0014,-1.0112,-1.0113,-1.0138,-1.0226,-1.0249,-1.0303,-1.0363,-1.0386,-1.0448,-1.0502,-1.054,-1.0562,-1.0601,-1.0601,-1.0621,-1.0594,-1.0582,-1.0572,-1.0568,-1.0571,-1.0559,-1.0683,-1.0683,-1.0683,0,0,-0.9934,-1.0,-1.0012,-1.0091,-1.0139,-1.0166,-1.0244,-1.027,-1.0291,-1.0389,-1.0414,-1.0462,-1.0529,-1.054,-1.0548,-1.0576,-1.0539,-1.0566,-1.0557,-1.0559,-1.0565,-1.0553,-1.0542,-1.068,-1.068,-1.0681,0,0,-0.9854,-0.9907,-0.9914,-0.9961,-1.0034,-1.0093,-1.0095,-1.0183,-1.0219,-1.0246,-1.032,-1.0346,-1.0408,-1.0453,-1.0483,-1.0422,-1.0476,-1.0433,-1.037,-1.0372,-1.0362,-1.0354,-1.033,-1.0321,-1.0429,-1.0429,-1.0429,0,-0.978,-0.9825,-0.991,-0.9931,-0.9963,-1.0056,-1.0062,-1.0104,-1.0185,-1.0204,-1.0236,-1.0316,-1.0368,-1.039,-1.0375,-1.0397,-1.0401,-1.0422,-1.0357,-1.035,-1.0343,-1.0322,-1.0313,-1.0423,-1.0424,-1.0424,-1.0425,0,-0.9731,-0.9761,-0.9757,-0.9835,-0.9867,-0.988,-0.9965,-0.9987,-1.0039,-1.0094,-1.012,-1.0186,-1.024,-1.025,-1.03,-1.0279,-1.0295,-1.034,-1.0394,-1.0324,-1.0305,-1.0298,-1.0414,-1.0417,-1.0418,-1.042,0,0,-0.9578,-0.9703,-0.97,-0.9737,-0.9825,-0.9849,-0.9867,-0.9922,-0.9938,-0.9992,-1.0008,-1.0059,-1.0102,-1.0137,-1.0193,-1.0195,-1.014,-1.0241,-1.0244,-1.0218,-1.012,-1.0083,-1.0073,-1.0178,-1.0177,-1.0176,-1.0114,0,-0.9511,-0.9549,-0.9626,-0.9639,-0.9667,-0.9757,-0.9772,-0.9827,-0.988,-0.9911,-0.9969,-1.0003,-1.0058,-1.008,-1.0085,-1.0146,-1.0122,-1.0152,-1.0192,-1.0192,-1.017,-1.0063,-1.0025,-0.9963,-1.0107,-1.0106,-1.0105,0,-0.9437,-0.9486,-0.9502,-0.9589,-0.9604,-0.9617,-0.9673,-0.9702,-0.9766,-0.9805,-0.9844,-0.9907,-0.9929,-0.998,-1.0012,-1.003,-1.0052,-1.0084,-1.0084,-1.0088,-1.0142,-1.0063,-0.9945,-0.9935,-1.0095,-1.0096,-1.0097,0,-0.9321,-0.9392,-0.9411,-0.9439,-0.9542,-0.9548,-0.9591,-0.9658,-0.9686,-0.9735,-0.9754,-0.9804,-0.9831,-0.9869,-0.9943,-0.9973,-0.9965,-1.0023,-0.9996,-0.9994,-0.9988,-0.9987,-0.987,-1.0005,-1.0006,-1.0006,-1.0006,0,-0.9237,-0.9242,-0.936,-0.9371,-0.938,-0.9469,-0.9475,-0.9526,-0.9585,-0.9607,-0.9688,-0.9707,-0.9805,-0.9835,-0.9893,-0.991,-0.9922,-0.9952,-0.9967,-0.9943,-0.9939,-0.9957,-0.9962,-1.0003,-1.0004,-1.0004,-1.0005,0,-0.9107,-0.9187,-0.9213,-0.9309,-0.9333,-0.9335,-0.9416,-0.943,-0.9489,-0.9515,-0.9527,-0.9618,-0.9657,-0.9736,-0.9797,-0.9836,-0.9838,-0.9866,-0.9816,-0.9825,-0.9793,-0.9794,-0.9681,-0.967,-0.9814,-0.9813,-0.9811,0,-0.9047,-0.9054,-0.9151,-0.9172,-0.9212,-0.9245,-0.9274,-0.9363,-0.939,-0.9464,-0.9468,-0.9515,-0.9556,-0.9615,-0.9685,-0.9732,-0.976,-0.9718,-0.9768,-0.9744,-0.9757,-0.9755,-0.9755,-0.9705,-0.9703,-0.9702,-0.97,0,-0.8931,-0.897,-0.901,-0.9064,-0.9097,-0.9143,-0.9193,-0.9206,-0.9306,-0.9332,-0.9374,-0.9406,-0.9469,-0.9513,-0.9571,-0.9614,-0.9672,-0.9685,-0.9681,-0.9655,-0.9625,-0.9639,-0.9783,-0.9686,-0.9687,-0.9689,-0.9689,-0.969,-0.8833,-0.8843,-0.8913,-0.8955,-0.9002,-0.9048,-0.9065,-0.9127,-0.9164,-0.9223,-0.9273,-0.931,-0.9375,-0.9459,-0.9498,-0.9528,-0.9557,-0.9551,-0.9549,-0.9546,-0.9535,-0.9623,-0.9539,-0.954,-0.954,-0.9541,-0.9541,0,-0.8719,-0.8769,-0.8807,-0.8876,-0.8908,-0.8964,-0.9023,-0.9046,-0.9078,-0.9135,-0.9174,-0.9222,-0.9266,-0.9341,-0.939,-0.94,-0.9428,-0.9409,-0.9408,-0.9417,-0.9508,-0.9506,-0.9386,-0.9386,-0.9386,-0.9386,-0.9386,-0.9386,-0.8663,-0.8683,-0.8731,-0.8775,-0.8825,-0.8863,-0.8892,-0.8934,-0.898,-0.903,-0.9067,-0.9117,-0.918,-0.9236,-0.9278,-0.9299,-0.9312,-0.9284,-0.9313,-0.9396,-0.9411,-0.9424,-0.9423,-0.9287,-0.9287,-0.922,-0.9219,-0.9219]}]]